Time,TemperatureF,DewpointF,PressureIn,WindDirection,WindDirectionDegrees,WindSpeedMPH,WindSpeedGustMPH,Humidity,HourlyPrecipIn,Conditions,Clouds,dailyrainin,SoftwareType,DateUTC
2013-05-14 00:01:00,56.7,34.9,29.92,SE,135,1.8,1.8,44,0.00,,,0.00,WUHU21623XXSP,2013-05-14 05:01:00,
2013-05-14 00:06:00,56.7,35.4,29.92,SSE,157,0.7,2.7,45,0.00,,,0.00,WUHU21623XXSP,2013-05-14 05:06:00,
2013-05-14 00:11:00,56.8,35.6,29.92,SSW,202,0.7,2.7,45,0.00,,,0.00,WUHU21623XXSP,2013-05-14 05:11:00,
2013-05-14 00:16:00,56.8,35.6,29.91,South,180,1.6,1.8,45,0.00,,,0.00,WUHU21623XXSP,2013-05-14 05:16:00,
2013-05-14 00:17:00,56.8,35.6,29.91,South,180,0.7,0.7,45,0.00,,,0.00,WUHU21623XXSP,2013-05-14 05:17:00,
2013-05-14 00:21:00,56.8,35.6,29.91,SSE,157,2.0,2.9,45,0.00,,,0.00,WUHU21623XXSP,2013-05-14 05:21:00,
2013-05-14 00:26:00,56.8,35.6,29.91,SSE,157,2.5,2.9,45,0.00,,,0.00,WUHU21623XXSP,2013-05-14 05:26:00,
2013-05-14 00:31:00,56.8,35.6,29.91,SSE,157,1.1,2.5,45,0.00,,,0.00,WUHU21623XXSP,2013-05-14 05:31:00,
2013-05-14 00:36:00,56.8,35.6,29.91,SSE,157,0.0,1.3,45,0.00,,,0.00,WUHU21623XXSP,2013-05-14 05:36:00,
2013-05-14 00:41:00,56.8,35.6,29.91,SSE,157,1.1,1.3,45,0.00,,,0.00,WUHU21623XXSP,2013-05-14 05:41:00,
2013-05-14 00:46:00,56.8,35.6,29.91,SSE,157,1.6,1.6,45,0.00,,,0.00,WUHU21623XXSP,2013-05-14 05:46:00,
2013-05-14 00:51:00,56.5,35.3,29.91,SSE,157,1.3,1.6,45,0.00,,,0.00,WUHU21623XXSP,2013-05-14 05:51:00,
2013-05-14 00:56:00,56.5,35.8,29.90,SE,135,0.9,1.8,46,0.00,,,0.00,WUHU21623XXSP,2013-05-14 05:56:00,
2013-05-14 01:01:00,56.3,35.8,29.91,SE,135,0.9,1.8,46,0.00,,,0.00,WUHU21623XXSP,2013-05-14 06:01:00,
2013-05-14 01:06:00,56.3,35.7,29.90,SSE,157,0.4,0.9,46,0.00,,,0.00,WUHU21623XXSP,2013-05-14 06:06:00,
2013-05-14 01:11:00,56.1,36.0,29.89,SE,135,3.1,3.8,47,0.00,,,0.00,WUHU21623XXSP,2013-05-14 06:11:00,
2013-05-14 01:16:00,56.1,36.0,29.89,SSE,157,5.8,5.8,47,0.00,,,0.00,WUHU21623XXSP,2013-05-14 06:16:00,
2013-05-14 01:17:00,56.1,36.1,29.89,SSE,158,0.0,0.0,47,0.00,,,0.00,WUHU21623XXSP,2013-05-14 06:17:00,
2013-05-14 01:21:00,56.1,36.0,29.89,SSE,157,3.1,5.8,47,0.00,,,0.00,WUHU21623XXSP,2013-05-14 06:21:00,
2013-05-14 01:26:00,55.9,36.4,29.89,SSE,157,1.3,7.2,48,0.00,,,0.00,WUHU21623XXSP,2013-05-14 06:26:00,
2013-05-14 01:31:00,56.1,36.6,29.89,SE,135,1.6,7.2,48,0.00,,,0.00,WUHU21623XXSP,2013-05-14 06:31:00,
2013-05-14 01:36:00,56.1,36.6,29.88,SSE,157,1.8,4.0,48,0.00,,,0.00,WUHU21623XXSP,2013-05-14 06:36:00,
2013-05-14 01:41:00,56.3,36.8,29.88,SSE,157,2.5,4.0,48,0.00,,,0.00,WUHU21623XXSP,2013-05-14 06:41:00,
2013-05-14 01:46:00,56.1,36.6,29.88,SSE,157,3.4,3.4,48,0.00,,,0.00,WUHU21623XXSP,2013-05-14 06:46:00,
2013-05-14 01:51:00,56.1,36.0,29.88,SSW,202,3.4,4.3,47,0.00,,,0.00,WUHU21623XXSP,2013-05-14 06:51:00,
2013-05-14 01:56:00,56.1,36.0,29.88,SE,135,1.8,4.3,47,0.00,,,0.00,WUHU21623XXSP,2013-05-14 06:56:00,
2013-05-14 02:01:00,56.3,36.8,29.88,SSE,157,0.0,2.5,48,0.00,,,0.00,WUHU21623XXSP,2013-05-14 07:01:00,
2013-05-14 02:06:00,56.3,36.2,29.87,South,180,4.5,4.5,47,0.00,,,0.00,WUHU21623XXSP,2013-05-14 07:06:00,
2013-05-14 02:11:00,56.1,36.6,29.87,SSW,202,2.9,4.5,48,0.00,,,0.00,WUHU21623XXSP,2013-05-14 07:11:00,
2013-05-14 02:16:00,56.1,36.6,29.87,West,270,0.7,4.5,48,0.00,,,0.00,WUHU21623XXSP,2013-05-14 07:16:00,
2013-05-14 02:17:00,55.9,36.4,29.86,South,180,2.7,2.7,48,0.00,,,0.00,WUHU21623XXSP,2013-05-14 07:17:00,
2013-05-14 02:21:00,55.9,36.4,29.86,SSE,157,1.1,4.0,48,0.00,,,0.00,WUHU21623XXSP,2013-05-14 07:21:00,
2013-05-14 02:26:00,55.9,36.4,29.86,SSE,157,1.8,4.0,48,0.00,,,0.00,WUHU21623XXSP,2013-05-14 07:26:00,
2013-05-14 02:31:00,55.8,36.3,29.86,SSW,202,1.3,1.8,48,0.00,,,0.00,WUHU21623XXSP,2013-05-14 07:31:00,
2013-05-14 02:36:00,55.8,36.8,29.86,South,180,1.3,1.8,49,0.00,,,0.00,WUHU21623XXSP,2013-05-14 07:36:00,
2013-05-14 02:41:00,55.8,36.8,29.86,ESE,112,1.6,2.5,49,0.00,,,0.00,WUHU21623XXSP,2013-05-14 07:41:00,
2013-05-14 02:46:00,55.8,36.8,29.86,SSE,157,1.3,5.1,49,0.00,,,0.00,WUHU21623XXSP,2013-05-14 07:46:00,
2013-05-14 02:51:00,55.6,36.6,29.85,SW,225,1.1,5.1,49,0.00,,,0.00,WUHU21623XXSP,2013-05-14 07:51:00,
2013-05-14 02:56:00,55.6,36.6,29.85,South,180,0.7,2.0,49,0.00,,,0.00,WUHU21623XXSP,2013-05-14 07:56:00,
2013-05-14 03:01:00,55.6,36.6,29.84,South,180,0.7,2.0,49,0.00,,,0.00,WUHU21623XXSP,2013-05-14 08:01:00,
2013-05-14 03:06:00,55.6,37.2,29.84,South,180,0.0,2.7,50,0.00,,,0.00,WUHU21623XXSP,2013-05-14 08:06:00,
2013-05-14 03:11:00,55.2,36.9,29.84,SSW,202,3.6,3.6,50,0.00,,,0.00,WUHU21623XXSP,2013-05-14 08:11:00,
2013-05-14 03:16:00,55.4,37.0,29.84,South,180,1.6,3.6,50,0.00,,,0.00,WUHU21623XXSP,2013-05-14 08:16:00,
2013-05-14 03:17:00,55.2,36.9,29.83,South,180,1.6,1.6,50,0.00,,,0.00,WUHU21623XXSP,2013-05-14 08:17:00,
2013-05-14 03:21:00,55.2,37.3,29.84,South,180,5.4,5.4,51,0.00,,,0.00,WUHU21623XXSP,2013-05-14 08:21:00,
2013-05-14 03:26:00,55.2,37.3,29.83,SSW,202,1.1,5.4,51,0.00,,,0.00,WUHU21623XXSP,2013-05-14 08:26:00,
2013-05-14 03:31:00,55.0,37.2,29.83,South,180,0.9,1.3,51,0.00,,,0.00,WUHU21623XXSP,2013-05-14 08:31:00,
2013-05-14 03:36:00,55.0,37.2,29.83,SSE,157,0.7,3.1,51,0.00,,,0.00,WUHU21623XXSP,2013-05-14 08:36:00,
2013-05-14 03:41:00,55.0,37.7,29.83,SW,225,0.0,3.1,52,0.00,,,0.00,WUHU21623XXSP,2013-05-14 08:41:00,
2013-05-14 03:46:00,55.0,37.7,29.83,SSE,157,1.1,3.4,52,0.00,,,0.00,WUHU21623XXSP,2013-05-14 08:46:00,
2013-05-14 03:51:00,55.0,37.7,29.83,South,180,5.4,5.4,52,0.00,,,0.00,WUHU21623XXSP,2013-05-14 08:51:00,
2013-05-14 03:56:00,54.9,37.5,29.82,South,180,2.2,5.4,52,0.00,,,0.00,WUHU21623XXSP,2013-05-14 08:56:00,
2013-05-14 04:01:00,55.0,37.7,29.82,South,180,2.0,2.2,52,0.00,,,0.00,WUHU21623XXSP,2013-05-14 09:01:00,
2013-05-14 04:06:00,55.0,38.1,29.81,South,180,3.8,3.8,53,0.00,,,0.00,WUHU21623XXSP,2013-05-14 09:06:00,
2013-05-14 04:11:00,55.0,38.1,29.81,SE,135,5.6,5.6,53,0.00,,,0.00,WUHU21623XXSP,2013-05-14 09:11:00,
2013-05-14 04:16:00,55.0,38.1,29.81,SSE,157,5.8,5.8,53,0.00,,,0.00,WUHU21623XXSP,2013-05-14 09:16:00,
2013-05-14 04:17:00,55.0,38.2,29.80,SSE,158,5.8,5.8,53,0.00,,,0.00,WUHU21623XXSP,2013-05-14 09:17:00,
2013-05-14 04:21:00,55.0,38.1,29.81,SSW,202,2.2,5.8,53,0.00,,,0.00,WUHU21623XXSP,2013-05-14 09:21:00,
2013-05-14 04:26:00,55.0,38.1,29.81,South,180,2.0,2.2,53,0.00,,,0.00,WUHU21623XXSP,2013-05-14 09:26:00,
2013-05-14 04:31:00,55.0,38.1,29.81,SSE,157,4.7,4.7,53,0.00,,,0.00,WUHU21623XXSP,2013-05-14 09:31:00,
2013-05-14 04:36:00,55.0,38.6,29.80,South,180,1.3,4.7,54,0.00,,,0.00,WUHU21623XXSP,2013-05-14 09:36:00,
2013-05-14 04:41:00,55.0,38.6,29.80,South,180,3.4,4.7,54,0.00,,,0.00,WUHU21623XXSP,2013-05-14 09:41:00,
2013-05-14 04:46:00,55.0,38.6,29.80,SSE,157,4.0,4.0,54,0.00,,,0.00,WUHU21623XXSP,2013-05-14 09:46:00,
2013-05-14 04:51:00,55.0,38.6,29.80,SSE,157,2.0,4.0,54,0.00,,,0.00,WUHU21623XXSP,2013-05-14 09:51:00,
2013-05-14 04:56:00,55.0,39.1,29.80,South,180,1.8,2.7,55,0.00,,,0.00,WUHU21623XXSP,2013-05-14 09:56:00,
2013-05-14 05:01:00,54.9,38.9,29.80,SE,135,1.8,2.9,55,0.00,,,0.00,WUHU21623XXSP,2013-05-14 10:01:00,
2013-05-14 05:06:00,55.0,39.1,29.80,South,180,3.6,3.6,55,0.00,,,0.00,WUHU21623XXSP,2013-05-14 10:06:00,
2013-05-14 05:11:00,55.0,39.1,29.80,South,180,5.8,5.8,55,0.00,,,0.00,WUHU21623XXSP,2013-05-14 10:11:00,
2013-05-14 05:16:00,54.9,39.4,29.80,SSE,157,0.7,5.8,56,0.00,,,0.00,WUHU21623XXSP,2013-05-14 10:16:00,
2013-05-14 05:17:00,54.9,39.6,29.80,SSE,158,0.7,0.7,56,0.00,,,0.00,WUHU21623XXSP,2013-05-14 10:17:00,
2013-05-14 05:21:00,54.9,39.4,29.80,South,180,0.0,2.0,56,0.00,,,0.00,WUHU21623XXSP,2013-05-14 10:21:00,
2013-05-14 05:26:00,54.7,39.2,29.80,South,180,0.0,1.3,56,0.00,,,0.00,WUHU21623XXSP,2013-05-14 10:26:00,
2013-05-14 05:31:00,54.5,39.5,29.80,SSE,157,0.7,0.7,57,0.00,,,0.00,WUHU21623XXSP,2013-05-14 10:31:00,
2013-05-14 05:36:00,54.5,39.5,29.79,South,180,0.9,0.9,57,0.00,,,0.00,WUHU21623XXSP,2013-05-14 10:36:00,
2013-05-14 05:41:00,54.5,39.5,29.79,SW,225,1.3,1.3,57,0.00,,,0.00,WUHU21623XXSP,2013-05-14 10:41:00,
2013-05-14 05:46:00,54.3,39.8,29.79,West,270,0.0,1.3,58,0.00,,,0.00,WUHU21623XXSP,2013-05-14 10:46:00,
2013-05-14 05:51:00,54.3,39.8,29.79,SW,225,0.7,0.7,58,0.00,,,0.00,WUHU21623XXSP,2013-05-14 10:51:00,
2013-05-14 05:56:00,54.3,40.3,29.80,South,180,0.0,0.7,59,0.00,,,0.00,WUHU21623XXSP,2013-05-14 10:56:00,
2013-05-14 06:01:00,54.1,40.1,29.80,South,180,1.3,1.3,59,0.00,,,0.00,WUHU21623XXSP,2013-05-14 11:01:00,
2013-05-14 06:06:00,54.0,40.0,29.80,South,180,0.0,1.3,59,0.00,,,0.00,WUHU21623XXSP,2013-05-14 11:06:00,
2013-05-14 06:11:00,54.0,40.0,29.80,South,180,0.7,0.7,59,0.00,,,0.00,WUHU21623XXSP,2013-05-14 11:11:00,
2013-05-14 06:16:00,54.0,40.4,29.80,South,180,0.0,0.7,60,0.00,,,0.00,WUHU21623XXSP,2013-05-14 11:16:00,
2013-05-14 06:17:00,53.8,40.3,29.79,South,180,0.0,0.0,60,0.00,,,0.00,WUHU21623XXSP,2013-05-14 11:17:00,
2013-05-14 06:21:00,53.8,40.3,29.79,South,180,0.4,0.4,60,0.00,,,0.00,WUHU21623XXSP,2013-05-14 11:21:00,
2013-05-14 06:26:00,53.8,40.3,29.80,South,180,0.7,1.1,60,0.00,,,0.00,WUHU21623XXSP,2013-05-14 11:26:00,
2013-05-14 06:31:00,53.8,40.7,29.79,South,180,0.7,1.1,61,0.00,,,0.00,WUHU21623XXSP,2013-05-14 11:31:00,
2013-05-14 06:36:00,54.0,40.8,29.79,SSE,157,2.0,2.0,61,0.00,,,0.00,WUHU21623XXSP,2013-05-14 11:36:00,
2013-05-14 06:41:00,54.0,41.2,29.79,SW,225,0.0,2.0,62,0.00,,,0.00,WUHU21623XXSP,2013-05-14 11:41:00,
2013-05-14 06:46:00,54.3,41.5,29.79,South,180,1.1,1.6,62,0.00,,,0.00,WUHU21623XXSP,2013-05-14 11:46:00,
2013-05-14 06:51:00,54.5,41.7,29.79,South,180,1.3,1.6,62,0.00,,,0.00,WUHU21623XXSP,2013-05-14 11:51:00,
2013-05-14 06:56:00,55.0,42.2,29.79,SSE,157,0.0,1.3,62,0.00,,,0.00,WUHU21623XXSP,2013-05-14 11:56:00,
2013-05-14 07:01:00,55.4,42.5,29.79,South,180,2.5,2.5,62,0.00,,,0.00,WUHU21623XXSP,2013-05-14 12:01:00,
2013-05-14 07:06:00,55.8,43.3,29.79,SSE,157,1.6,2.5,63,0.00,,,0.00,WUHU21623XXSP,2013-05-14 12:06:00,
2013-05-14 07:11:00,56.3,43.8,29.79,SSE,157,2.7,3.1,63,0.00,,,0.00,WUHU21623XXSP,2013-05-14 12:11:00,
2013-05-14 07:16:00,56.8,44.0,29.79,South,180,1.3,3.1,62,0.00,,,0.00,WUHU21623XXSP,2013-05-14 12:16:00,
2013-05-14 07:17:00,57.0,43.8,29.78,South,180,2.2,2.2,61,0.00,,,0.00,WUHU21623XXSP,2013-05-14 12:17:00,
2013-05-14 07:21:00,57.4,44.1,29.79,SSE,157,4.5,4.5,61,0.00,,,0.00,WUHU21623XXSP,2013-05-14 12:21:00,
2013-05-14 07:26:00,57.9,44.6,29.78,SSE,157,0.0,4.5,61,0.00,,,0.00,WUHU21623XXSP,2013-05-14 12:26:00,
2013-05-14 07:31:00,58.1,44.3,29.78,SSE,157,0.0,1.6,60,0.00,,,0.00,WUHU21623XXSP,2013-05-14 12:31:00,
2013-05-14 07:36:00,58.6,44.8,29.78,SW,225,4.9,5.4,60,0.00,,,0.00,WUHU21623XXSP,2013-05-14 12:36:00,
2013-05-14 07:41:00,59.4,45.0,29.79,SSW,202,0.0,5.4,59,0.00,,,0.00,WUHU21623XXSP,2013-05-14 12:41:00,
2013-05-14 07:46:00,59.7,45.4,29.79,SW,225,2.5,4.0,59,0.00,,,0.00,WUHU21623XXSP,2013-05-14 12:46:00,
2013-05-14 07:51:00,60.3,45.4,29.79,SE,135,5.6,5.6,58,0.00,,,0.00,WUHU21623XXSP,2013-05-14 12:51:00,
2013-05-14 07:56:00,61.0,46.1,29.79,SSW,202,5.8,5.8,58,0.00,,,0.00,WUHU21623XXSP,2013-05-14 12:56:00,
2013-05-14 08:01:00,61.3,46.5,29.78,SW,225,2.2,5.8,58,0.00,,,0.00,WUHU21623XXSP,2013-05-14 13:01:00,
2013-05-14 08:06:00,62.2,46.8,29.78,SW,225,2.5,2.5,57,0.00,,,0.00,WUHU21623XXSP,2013-05-14 13:06:00,
2013-05-14 08:11:00,62.8,47.3,29.79,SE,135,0.0,2.5,57,0.00,,,0.00,WUHU21623XXSP,2013-05-14 13:11:00,
2013-05-14 08:16:00,63.3,47.8,29.79,WSW,247,0.2,1.8,57,0.00,,,0.00,WUHU21623XXSP,2013-05-14 13:16:00,
2013-05-14 08:17:00,63.9,48.5,29.78,SSW,203,0.0,0.0,57,0.00,,,0.00,WUHU21623XXSP,2013-05-14 13:17:00,
2013-05-14 08:21:00,64.2,48.1,29.78,SE,135,4.0,4.0,56,0.00,,,0.00,WUHU21623XXSP,2013-05-14 13:21:00,
2013-05-14 08:26:00,64.6,47.9,29.79,SSE,157,2.2,4.7,55,0.00,,,0.00,WUHU21623XXSP,2013-05-14 13:26:00,
2013-05-14 08:31:00,64.9,48.3,29.79,WSW,247,0.0,4.7,55,0.00,,,0.00,WUHU21623XXSP,2013-05-14 13:31:00,
2013-05-14 08:36:00,65.5,48.3,29.78,SSW,202,0.0,5.4,54,0.00,,,0.00,WUHU21623XXSP,2013-05-14 13:36:00,
2013-05-14 08:41:00,65.8,48.7,29.78,SE,135,0.0,5.4,54,0.00,,,0.00,WUHU21623XXSP,2013-05-14 13:41:00,
2013-05-14 08:46:00,66.4,49.2,29.79,SSW,202,0.0,5.4,54,0.00,,,0.00,WUHU21623XXSP,2013-05-14 13:46:00,
2013-05-14 08:51:00,66.9,49.7,29.78,SSW,202,1.1,5.4,54,0.00,,,0.00,WUHU21623XXSP,2013-05-14 13:51:00,
2013-05-14 08:56:00,67.5,49.7,29.78,WSW,247,6.7,6.7,53,0.00,,,0.00,WUHU21623XXSP,2013-05-14 13:56:00,
2013-05-14 09:01:00,68.0,49.7,29.78,SW,225,1.8,6.7,52,0.00,,,0.00,WUHU21623XXSP,2013-05-14 14:01:00,
2013-05-14 09:06:00,68.5,50.2,29.77,SE,135,0.2,5.6,52,0.00,,,0.00,WUHU21623XXSP,2013-05-14 14:06:00,
2013-05-14 09:11:00,68.7,50.4,29.77,West,270,4.9,5.6,52,0.00,,,0.00,WUHU21623XXSP,2013-05-14 14:11:00,
2013-05-14 09:16:00,69.1,50.7,29.77,SW,225,3.1,4.9,52,0.00,,,0.00,WUHU21623XXSP,2013-05-14 14:16:00,
2013-05-14 09:17:00,69.3,50.5,29.77,West,270,2.7,2.7,51,0.00,,,0.00,WUHU21623XXSP,2013-05-14 14:17:00,
2013-05-14 09:21:00,69.8,50.9,29.77,SW,225,2.5,3.1,51,0.00,,,0.00,WUHU21623XXSP,2013-05-14 14:21:00,
2013-05-14 09:26:00,70.2,50.7,29.77,West,270,0.9,2.7,50,0.00,,,0.00,WUHU21623XXSP,2013-05-14 14:26:00,
2013-05-14 09:31:00,70.9,50.7,29.77,SSW,202,0.0,5.8,49,0.00,,,0.00,WUHU21623XXSP,2013-05-14 14:31:00,
2013-05-14 09:36:00,71.2,50.5,29.77,South,180,0.0,5.8,48,0.00,,,0.00,WUHU21623XXSP,2013-05-14 14:36:00,
2013-05-14 09:41:00,71.4,50.6,29.77,WSW,247,2.0,2.0,48,0.00,,,0.00,WUHU21623XXSP,2013-05-14 14:41:00,
2013-05-14 09:46:00,71.8,50.4,29.77,SW,225,2.2,2.5,47,0.00,,,0.00,WUHU21623XXSP,2013-05-14 14:46:00,
2013-05-14 09:52:00,72.0,50.5,29.77,SSW,202,1.8,4.7,47,0.00,,,0.00,WUHU21623XXSP,2013-05-14 14:52:00,
2013-05-14 09:57:00,72.1,50.7,29.77,WNW,292,2.0,4.7,47,0.00,,,0.00,WUHU21623XXSP,2013-05-14 14:57:00,
2013-05-14 10:02:00,72.5,51.0,29.77,SW,225,1.6,2.0,47,0.00,,,0.00,WUHU21623XXSP,2013-05-14 15:02:00,
2013-05-14 10:07:00,72.9,50.7,29.77,SSE,157,2.9,2.9,46,0.00,,,0.00,WUHU21623XXSP,2013-05-14 15:07:00,
2013-05-14 10:12:00,73.2,51.7,29.77,WSW,247,2.0,2.9,47,0.00,,,0.00,WUHU21623XXSP,2013-05-14 15:12:00,
2013-05-14 10:17:00,73.8,51.6,29.77,WSW,247,3.4,5.4,46,0.00,,,0.00,WUHU21623XXSP,2013-05-14 15:17:00,
2013-05-14 10:22:00,74.1,51.9,29.77,WSW,247,2.5,5.4,46,0.00,,,0.00,WUHU21623XXSP,2013-05-14 15:22:00,
2013-05-14 10:27:00,74.3,52.1,29.77,SSW,202,2.2,3.4,46,0.00,,,0.00,WUHU21623XXSP,2013-05-14 15:27:00,
2013-05-14 10:32:00,74.3,50.9,29.76,SW,225,1.6,3.4,44,0.00,,,0.00,WUHU21623XXSP,2013-05-14 15:32:00,
2013-05-14 10:37:00,74.8,51.4,29.76,SSW,202,0.0,1.6,44,0.00,,,0.00,WUHU21623XXSP,2013-05-14 15:37:00,
2013-05-14 10:42:00,75.0,51.4,29.76,West,270,1.3,1.3,44,0.00,,,0.00,WUHU21623XXSP,2013-05-14 15:42:00,
2013-05-14 10:47:00,75.6,52.1,29.76,SW,225,2.5,2.5,44,0.00,,,0.00,WUHU21623XXSP,2013-05-14 15:47:00,
2013-05-14 10:52:00,75.9,52.4,29.77,West,270,0.9,2.5,44,0.00,,,0.00,WUHU21623XXSP,2013-05-14 15:52:00,
2013-05-14 10:57:00,76.5,51.6,29.77,SW,225,1.3,2.0,42,0.00,,,0.00,WUHU21623XXSP,2013-05-14 15:57:00,
2013-05-14 11:02:00,77.2,52.3,29.77,South,180,2.5,2.5,42,0.00,,,0.00,WUHU21623XXSP,2013-05-14 16:02:00,
2013-05-14 11:07:00,77.4,52.4,29.77,WSW,247,4.5,4.5,42,0.00,,,0.00,WUHU21623XXSP,2013-05-14 16:07:00,
2013-05-14 11:12:00,77.7,51.5,29.78,SW,225,0.0,4.5,40,0.00,,,0.00,WUHU21623XXSP,2013-05-14 16:12:00,
2013-05-14 11:17:00,78.4,51.4,29.77,SSW,202,0.0,2.7,39,0.00,,,0.00,WUHU21623XXSP,2013-05-14 16:17:00,
2013-05-14 11:22:00,78.6,51.6,29.77,SW,225,0.9,3.1,39,0.00,,,0.00,WUHU21623XXSP,2013-05-14 16:22:00,
2013-05-14 11:27:00,79.0,51.9,29.77,South,180,0.7,3.1,39,0.00,,,0.00,WUHU21623XXSP,2013-05-14 16:27:00,
2013-05-14 11:32:00,79.5,52.4,29.77,NNW,337,0.0,1.3,39,0.00,,,0.00,WUHU21623XXSP,2013-05-14 16:32:00,
2013-05-14 11:37:00,79.9,52.7,29.77,SW,225,4.0,4.0,39,0.00,,,0.00,WUHU21623XXSP,2013-05-14 16:37:00,
2013-05-14 11:42:00,80.2,52.3,29.77,WSW,247,5.4,5.4,38,0.00,,,0.00,WUHU21623XXSP,2013-05-14 16:42:00,
2013-05-14 11:47:00,81.1,52.1,29.78,SSW,202,0.4,5.4,37,0.00,,,0.00,WUHU21623XXSP,2013-05-14 16:47:00,
2013-05-14 11:52:00,81.5,52.6,29.77,SSW,202,1.8,1.8,37,0.00,,,0.00,WUHU21623XXSP,2013-05-14 16:52:00,
2013-05-14 11:57:00,82.0,51.5,29.77,WNW,292,0.0,3.6,35,0.00,,,0.00,WUHU21623XXSP,2013-05-14 16:57:00,
2013-05-14 12:02:00,83.1,52.4,29.77,West,270,3.6,3.6,35,0.00,,,0.00,WUHU21623XXSP,2013-05-14 17:02:00,
2013-05-14 12:07:00,83.5,52.0,29.77,SW,225,0.0,3.6,34,0.00,,,0.00,WUHU21623XXSP,2013-05-14 17:07:00,
2013-05-14 12:12:00,84.6,53.0,29.77,SSW,202,0.4,1.6,34,0.00,,,0.00,WUHU21623XXSP,2013-05-14 17:12:00,
2013-05-14 12:17:00,84.9,53.3,29.78,NW,315,0.0,1.6,34,0.00,,,0.00,WUHU21623XXSP,2013-05-14 17:17:00,
2013-05-14 12:22:00,85.3,52.0,29.77,SSW,202,2.9,2.9,32,0.00,,,0.00,WUHU21623XXSP,2013-05-14 17:22:00,
2013-05-14 12:27:00,85.8,52.5,29.77,WSW,247,2.9,2.9,32,0.00,,,0.00,WUHU21623XXSP,2013-05-14 17:27:00,
2013-05-14 12:32:00,86.2,52.0,29.77,SW,225,1.3,2.9,31,0.00,,,0.00,WUHU21623XXSP,2013-05-14 17:32:00,
2013-05-14 12:37:00,86.4,52.2,29.77,SW,225,1.8,1.8,31,0.00,,,0.00,WUHU21623XXSP,2013-05-14 17:37:00,
2013-05-14 12:42:00,86.7,52.4,29.76,SSE,157,3.6,3.8,31,0.00,,,0.00,WUHU21623XXSP,2013-05-14 17:42:00,
2013-05-14 12:47:00,87.3,52.1,29.76,WSW,247,0.0,3.8,30,0.00,,,0.00,WUHU21623XXSP,2013-05-14 17:47:00,
2013-05-14 12:52:00,87.6,51.3,29.76,WNW,292,2.2,2.2,29,0.00,,,0.00,WUHU21623XXSP,2013-05-14 17:52:00,
2013-05-14 12:57:00,88.3,51.9,29.76,SW,225,1.6,4.3,29,0.00,,,0.00,WUHU21623XXSP,2013-05-14 17:57:00,
2013-05-14 13:02:00,88.7,51.2,29.76,South,180,4.0,4.3,28,0.00,,,0.00,WUHU21623XXSP,2013-05-14 18:02:00,
2013-05-14 13:07:00,89.2,51.7,29.75,WSW,247,0.9,4.0,28,0.00,,,0.00,WUHU21623XXSP,2013-05-14 18:07:00,
2013-05-14 13:12:00,89.8,51.0,29.75,WSW,247,1.6,4.9,27,0.00,,,0.00,WUHU21623XXSP,2013-05-14 18:12:00,
2013-05-14 13:17:00,90.3,50.4,29.75,WSW,247,1.6,4.9,26,0.00,,,0.00,WUHU21623XXSP,2013-05-14 18:17:00,
2013-05-14 13:22:00,90.5,49.5,29.75,SSW,202,1.3,1.6,25,0.00,,,0.00,WUHU21623XXSP,2013-05-14 18:22:00,
2013-05-14 13:27:00,91.0,50.0,29.75,South,180,0.0,1.3,25,0.00,,,0.00,WUHU21623XXSP,2013-05-14 18:27:00,
2013-05-14 13:32:00,91.8,49.5,29.74,SW,225,1.3,1.3,24,0.00,,,0.00,WUHU21623XXSP,2013-05-14 18:32:00,
2013-05-14 13:37:00,92.1,47.6,29.74,SW,225,0.9,2.9,22,0.00,,,0.00,WUHU21623XXSP,2013-05-14 18:37:00,
2013-05-14 13:42:00,92.1,43.9,29.74,South,180,2.5,2.9,19,0.00,,,0.00,WUHU21623XXSP,2013-05-14 18:42:00,
2013-05-14 13:47:00,92.1,46.5,29.74,West,270,0.0,2.9,21,0.00,,,0.00,WUHU21623XXSP,2013-05-14 18:47:00,
2013-05-14 13:52:00,92.7,45.8,29.73,West,270,0.0,0.9,20,0.00,,,0.00,WUHU21623XXSP,2013-05-14 18:52:00,
2013-05-14 13:57:00,92.8,44.5,29.73,SSE,157,3.6,3.6,19,0.00,,,0.00,WUHU21623XXSP,2013-05-14 18:57:00,
2013-05-14 14:02:00,93.0,44.7,29.73,SSE,157,1.8,3.6,19,0.00,,,0.00,WUHU21623XXSP,2013-05-14 19:02:00,
2013-05-14 14:07:00,93.2,44.8,29.73,West,270,0.0,3.6,19,0.00,,,0.00,WUHU21623XXSP,2013-05-14 19:07:00,
2013-05-14 14:12:00,93.6,45.2,29.73,WSW,247,1.6,3.1,19,0.00,,,0.00,WUHU21623XXSP,2013-05-14 19:12:00,
2013-05-14 14:17:00,93.9,45.4,29.73,WSW,247,0.0,3.1,19,0.00,,,0.00,WUHU21623XXSP,2013-05-14 19:17:00,
2013-05-14 14:22:00,94.1,45.6,29.73,SSW,202,0.9,1.8,19,0.00,,,0.00,WUHU21623XXSP,2013-05-14 19:22:00,
2013-05-14 14:27:00,94.1,45.6,29.73,SSW,202,0.7,2.9,19,0.00,,,0.00,WUHU21623XXSP,2013-05-14 19:27:00,
2013-05-14 14:32:00,94.1,45.6,29.73,ESE,112,0.0,3.1,19,0.00,,,0.00,WUHU21623XXSP,2013-05-14 19:32:00,
2013-05-14 14:37:00,94.5,45.9,29.73,SW,225,1.3,4.3,19,0.00,,,0.00,WUHU21623XXSP,2013-05-14 19:37:00,
2013-05-14 14:42:00,94.1,45.6,29.73,SSE,157,2.9,4.3,19,0.00,,,0.00,WUHU21623XXSP,2013-05-14 19:42:00,
2013-05-14 14:47:00,94.3,45.7,29.73,SSW,202,0.0,2.9,19,0.00,,,0.00,WUHU21623XXSP,2013-05-14 19:47:00,
2013-05-14 14:52:00,94.3,45.7,29.73,SW,225,1.6,1.6,19,0.00,,,0.00,WUHU21623XXSP,2013-05-14 19:52:00,
2013-05-14 14:57:00,94.3,45.7,29.73,West,270,0.0,6.5,19,0.00,,,0.00,WUHU21623XXSP,2013-05-14 19:57:00,
2013-05-14 15:02:00,94.8,46.1,29.73,WSW,247,0.2,6.5,19,0.00,,,0.00,WUHU21623XXSP,2013-05-14 20:02:00,
2013-05-14 15:07:00,95.2,46.5,29.73,SSW,202,2.9,6.3,19,0.00,,,0.00,WUHU21623XXSP,2013-05-14 20:07:00,
2013-05-14 15:12:00,95.2,46.5,29.73,West,270,3.4,6.3,19,0.00,,,0.00,WUHU21623XXSP,2013-05-14 20:12:00,
2013-05-14 15:17:00,95.4,46.6,29.73,WNW,292,3.1,3.4,19,0.00,,,0.00,WUHU21623XXSP,2013-05-14 20:17:00,
2013-05-14 15:22:00,95.5,46.7,29.73,SSW,202,3.8,3.8,19,0.00,,,0.00,WUHU21623XXSP,2013-05-14 20:22:00,
2013-05-14 15:27:00,95.7,46.9,29.73,WSW,247,1.1,3.8,19,0.00,,,0.00,WUHU21623XXSP,2013-05-14 20:27:00,
2013-05-14 15:32:00,95.5,46.7,29.72,West,270,0.0,1.6,19,0.00,,,0.00,WUHU21623XXSP,2013-05-14 20:32:00,
2013-05-14 15:37:00,95.7,46.9,29.72,South,180,0.0,0.0,19,0.00,,,0.00,WUHU21623XXSP,2013-05-14 20:37:00,
2013-05-14 15:42:00,95.7,46.9,29.72,South,180,0.0,2.2,19,0.00,,,0.00,WUHU21623XXSP,2013-05-14 20:42:00,
2013-05-14 15:47:00,95.5,46.7,29.72,WSW,247,2.0,2.2,19,0.00,,,0.00,WUHU21623XXSP,2013-05-14 20:47:00,
2013-05-14 15:52:00,95.2,46.5,29.71,SSW,202,0.0,2.7,19,0.00,,,0.00,WUHU21623XXSP,2013-05-14 20:52:00,
2013-05-14 15:57:00,94.6,46.0,29.71,SW,225,1.8,2.7,19,0.00,,,0.00,WUHU21623XXSP,2013-05-14 20:57:00,
2013-05-14 16:02:00,94.5,45.9,29.71,South,180,2.0,2.0,19,0.00,,,0.00,WUHU21623XXSP,2013-05-14 21:02:00,
2013-05-14 16:07:00,94.5,45.9,29.70,SW,225,0.0,2.9,19,0.00,,,0.00,WUHU21623XXSP,2013-05-14 21:07:00,
2013-05-14 16:12:00,94.3,45.7,29.70,SW,225,0.0,3.8,19,0.00,,,0.00,WUHU21623XXSP,2013-05-14 21:12:00,
2013-05-14 16:17:00,94.1,45.6,29.70,WSW,247,1.3,3.8,19,0.00,,,0.00,WUHU21623XXSP,2013-05-14 21:17:00,
2013-05-14 16:22:00,94.1,45.6,29.69,SSW,202,0.0,3.8,19,0.00,,,0.00,WUHU21623XXSP,2013-05-14 21:22:00,
2013-05-14 16:27:00,93.7,45.2,29.69,West,270,0.0,3.8,19,0.00,,,0.00,WUHU21623XXSP,2013-05-14 21:27:00,
2013-05-14 16:32:00,93.6,45.2,29.68,SSE,157,0.4,4.3,19,0.00,,,0.00,WUHU21623XXSP,2013-05-14 21:32:00,
2013-05-14 16:37:00,93.0,44.7,29.68,SW,225,3.4,4.3,19,0.00,,,0.00,WUHU21623XXSP,2013-05-14 21:37:00,
2013-05-14 16:42:00,92.8,44.5,29.68,East,90,0.0,3.4,19,0.00,,,0.00,WUHU21623XXSP,2013-05-14 21:42:00,
2013-05-14 16:47:00,92.7,44.4,29.68,SSE,157,1.8,2.7,19,0.00,,,0.00,WUHU21623XXSP,2013-05-14 21:47:00,
2013-05-14 16:52:00,92.5,44.3,29.68,NNW,337,0.0,2.7,19,0.00,,,0.00,WUHU21623XXSP,2013-05-14 21:52:00,
2013-05-14 16:57:00,92.7,44.4,29.67,SSW,202,6.9,6.9,19,0.00,,,0.00,WUHU21623XXSP,2013-05-14 21:57:00,
2013-05-14 17:02:00,92.3,44.1,29.67,SSW,202,5.8,6.9,19,0.00,,,0.00,WUHU21623XXSP,2013-05-14 22:02:00,
2013-05-14 17:07:00,92.5,44.3,29.67,SSE,157,0.7,5.8,19,0.00,,,0.00,WUHU21623XXSP,2013-05-14 22:07:00,
2013-05-14 17:12:00,92.5,44.3,29.67,South,180,2.0,4.5,19,0.00,,,0.00,WUHU21623XXSP,2013-05-14 22:12:00,
2013-05-14 17:17:00,92.7,44.4,29.66,SE,135,5.1,5.1,19,0.00,,,0.00,WUHU21623XXSP,2013-05-14 22:17:00,
2013-05-14 17:22:00,92.5,44.3,29.66,SSE,157,2.0,5.1,19,0.00,,,0.00,WUHU21623XXSP,2013-05-14 22:22:00,
2013-05-14 17:27:00,92.3,44.1,29.66,SSE,157,2.7,2.7,19,0.00,,,0.00,WUHU21623XXSP,2013-05-14 22:27:00,
2013-05-14 17:32:00,92.3,44.1,29.66,SSE,157,1.3,3.4,19,0.00,,,0.00,WUHU21623XXSP,2013-05-14 22:32:00,
2013-05-14 17:37:00,92.3,44.1,29.65,South,180,1.3,5.8,19,0.00,,,0.00,WUHU21623XXSP,2013-05-14 22:37:00,
2013-05-14 17:42:00,92.3,44.1,29.65,SSW,202,2.2,5.8,19,0.00,,,0.00,WUHU21623XXSP,2013-05-14 22:42:00,
2013-05-14 17:47:00,92.3,44.1,29.65,South,180,9.8,9.8,19,0.00,,,0.00,WUHU21623XXSP,2013-05-14 22:47:00,
2013-05-14 17:52:00,92.3,44.1,29.65,SSE,157,0.0,9.8,19,0.00,,,0.00,WUHU21623XXSP,2013-05-14 22:52:00,
2013-05-14 17:57:00,92.3,44.1,29.65,SSW,202,2.2,6.5,19,0.00,,,0.00,WUHU21623XXSP,2013-05-14 22:57:00,
2013-05-14 18:02:00,91.9,43.8,29.64,SSE,157,6.3,6.9,19,0.00,,,0.00,WUHU21623XXSP,2013-05-14 23:02:00,
2013-05-14 18:07:00,91.8,43.7,29.64,SSE,157,3.8,6.9,19,0.00,,,0.00,WUHU21623XXSP,2013-05-14 23:07:00,
2013-05-14 18:12:00,91.8,43.7,29.64,South,180,4.5,4.5,19,0.00,,,0.00,WUHU21623XXSP,2013-05-14 23:12:00,
2013-05-14 18:17:00,91.6,43.5,29.63,SSE,157,5.4,5.4,19,0.00,,,0.00,WUHU21623XXSP,2013-05-14 23:17:00,
2013-05-14 18:22:00,91.6,43.5,29.63,SSE,157,0.2,5.4,19,0.00,,,0.00,WUHU21623XXSP,2013-05-14 23:22:00,
2013-05-14 18:27:00,91.4,43.4,29.63,SSE,157,3.8,4.5,19,0.00,,,0.00,WUHU21623XXSP,2013-05-14 23:27:00,
2013-05-14 18:32:00,91.0,43.0,29.62,WSW,247,1.3,3.8,19,0.00,,,0.00,WUHU21623XXSP,2013-05-14 23:32:00,
2013-05-14 18:37:00,91.0,43.0,29.62,South,180,4.3,4.3,19,0.00,,,0.00,WUHU21623XXSP,2013-05-14 23:37:00,
2013-05-14 18:42:00,90.7,42.8,29.63,SSE,157,2.0,4.5,19,0.00,,,0.00,WUHU21623XXSP,2013-05-14 23:42:00,
2013-05-14 18:47:00,90.5,42.6,29.62,SSE,157,5.4,5.4,19,0.00,,,0.00,WUHU21623XXSP,2013-05-14 23:47:00,
2013-05-14 18:52:00,90.3,42.5,29.62,SSE,157,5.6,5.6,19,0.00,,,0.00,WUHU21623XXSP,2013-05-14 23:52:00,
2013-05-14 18:57:00,90.1,42.3,29.62,SE,135,5.1,5.6,19,0.00,,,0.00,WUHU21623XXSP,2013-05-14 23:57:00,
2013-05-14 19:02:00,90.0,42.2,29.62,South,180,2.9,5.1,19,0.00,,,0.00,WUHU21623XXSP,2013-05-15 00:02:00,
2013-05-14 19:07:00,89.4,44.3,29.62,South,180,5.6,5.6,21,0.00,,,0.00,WUHU21623XXSP,2013-05-15 00:07:00,
2013-05-14 19:12:00,89.2,45.2,29.62,SW,225,2.2,5.6,22,0.00,,,0.00,WUHU21623XXSP,2013-05-15 00:12:00,
2013-05-14 19:17:00,88.7,46.9,29.62,SE,135,3.1,3.4,24,0.00,,,0.00,WUHU21623XXSP,2013-05-15 00:17:00,
2013-05-14 19:22:00,88.5,46.7,29.62,SSW,202,0.0,3.4,24,0.00,,,0.00,WUHU21623XXSP,2013-05-15 00:22:00,
2013-05-14 19:27:00,88.2,48.6,29.62,SSE,157,2.2,2.2,26,0.00,,,0.00,WUHU21623XXSP,2013-05-15 00:27:00,
2013-05-14 19:32:00,88.0,49.5,29.62,SSE,157,1.6,2.5,27,0.00,,,0.00,WUHU21623XXSP,2013-05-15 00:32:00,
2013-05-14 19:37:00,87.8,50.4,29.62,South,180,3.6,3.6,28,0.00,,,0.00,WUHU21623XXSP,2013-05-15 00:37:00,
2013-05-14 19:42:00,87.3,51.0,29.62,South,180,5.1,6.0,29,0.00,,,0.00,WUHU21623XXSP,2013-05-15 00:42:00,
2013-05-14 19:47:00,86.9,50.7,29.62,South,180,4.0,6.0,29,0.00,,,0.00,WUHU21623XXSP,2013-05-15 00:47:00,
2013-05-14 19:52:00,86.9,51.8,29.62,SSW,202,6.0,6.0,30,0.00,,,0.00,WUHU21623XXSP,2013-05-15 00:52:00,
2013-05-14 19:57:00,86.4,52.2,29.62,SSW,202,2.0,9.4,31,0.00,,,0.00,WUHU21623XXSP,2013-05-15 00:57:00,
2013-05-14 20:02:00,86.4,53.0,29.62,SSE,157,1.8,9.4,32,0.00,,,0.00,WUHU21623XXSP,2013-05-15 01:02:00,
2013-05-14 20:07:00,86.2,52.8,29.63,SE,135,1.3,5.8,32,0.00,,,0.00,WUHU21623XXSP,2013-05-15 01:07:00,
2013-05-14 20:12:00,85.5,53.0,29.63,South,180,2.5,4.3,33,0.00,,,0.00,WUHU21623XXSP,2013-05-15 01:12:00,
2013-05-14 20:17:00,85.1,52.6,29.63,South,180,0.9,4.3,33,0.00,,,0.00,WUHU21623XXSP,2013-05-15 01:17:00,
2013-05-14 20:22:00,84.9,54.1,29.62,SE,135,2.9,3.4,35,0.00,,,0.00,WUHU21623XXSP,2013-05-15 01:22:00,
2013-05-14 20:27:00,84.6,53.7,29.63,SSW,202,2.0,4.0,35,0.00,,,0.00,WUHU21623XXSP,2013-05-15 01:27:00,
2013-05-14 20:32:00,83.8,53.9,29.63,SSE,157,4.5,8.1,36,0.00,,,0.00,WUHU21623XXSP,2013-05-15 01:32:00,
2013-05-14 20:37:00,83.7,53.7,29.63,South,180,0.0,8.1,36,0.00,,,0.00,WUHU21623XXSP,2013-05-15 01:37:00,
2013-05-14 20:42:00,83.3,54.2,29.64,SW,225,2.7,2.7,37,0.00,,,0.00,WUHU21623XXSP,2013-05-15 01:42:00,
2013-05-14 20:47:00,83.3,54.2,29.64,SW,225,0.0,3.6,37,0.00,,,0.00,WUHU21623XXSP,2013-05-15 01:47:00,
2013-05-14 20:52:00,83.1,54.0,29.64,SSE,157,2.2,3.6,37,0.00,,,0.00,WUHU21623XXSP,2013-05-15 01:52:00,
2013-05-14 20:57:00,82.8,54.5,29.64,South,180,3.8,4.7,38,0.00,,,0.00,WUHU21623XXSP,2013-05-15 01:57:00,
2013-05-14 21:02:00,82.6,54.3,29.64,SE,135,2.9,4.7,38,0.00,,,0.00,WUHU21623XXSP,2013-05-15 02:02:00,
2013-05-14 21:07:00,82.4,54.2,29.64,SE,135,0.4,3.6,38,0.00,,,0.00,WUHU21623XXSP,2013-05-15 02:07:00,
2013-05-14 21:12:00,82.0,53.9,29.65,NNW,337,1.8,3.8,38,0.00,,,0.00,WUHU21623XXSP,2013-05-15 02:12:00,
2013-05-14 21:17:00,81.9,53.7,29.66,SW,225,0.0,3.8,38,0.00,,,0.00,WUHU21623XXSP,2013-05-15 02:17:00,
2013-05-14 21:22:00,81.7,53.5,29.68,NNW,337,0.0,2.0,38,0.00,,,0.00,WUHU21623XXSP,2013-05-15 02:22:00,
2013-05-14 21:27:00,81.5,54.2,29.69,NE,45,1.8,2.0,39,0.00,,,0.00,WUHU21623XXSP,2013-05-15 02:27:00,
2013-05-14 21:32:00,81.3,54.0,29.68,NE,45,3.1,3.1,39,0.00,,,0.00,WUHU21623XXSP,2013-05-15 02:32:00,
2013-05-14 21:37:00,81.0,53.7,29.68,ESE,112,0.0,3.1,39,0.00,,,0.00,WUHU21623XXSP,2013-05-15 02:37:00,
2013-05-14 21:42:00,80.8,53.5,29.68,ESE,112,0.0,0.0,39,0.00,,,0.00,WUHU21623XXSP,2013-05-15 02:42:00,
2013-05-14 21:47:00,80.6,53.4,29.68,ESE,112,0.0,0.0,39,0.00,,,0.00,WUHU21623XXSP,2013-05-15 02:47:00,
2013-05-14 21:52:00,80.2,53.8,29.68,ESE,112,0.0,0.4,40,0.00,,,0.00,WUHU21623XXSP,2013-05-15 02:52:00,
2013-05-14 21:57:00,80.1,53.7,29.68,East,90,0.0,2.9,40,0.00,,,0.00,WUHU21623XXSP,2013-05-15 02:57:00,
2013-05-14 22:02:00,80.1,53.7,29.68,ESE,112,0.0,2.9,40,0.00,,,0.00,WUHU21623XXSP,2013-05-15 03:02:00,
2013-05-14 22:07:00,79.7,54.6,29.68,SW,225,0.0,0.7,42,0.00,,,0.00,WUHU21623XXSP,2013-05-15 03:07:00,
2013-05-14 22:12:00,79.5,54.4,29.68,SE,135,0.0,0.7,42,0.00,,,0.00,WUHU21623XXSP,2013-05-15 03:12:00,
2013-05-14 22:17:00,79.3,54.2,29.66,SE,135,0.0,0.4,42,0.00,,,0.00,WUHU21623XXSP,2013-05-15 03:17:00,
2013-05-14 22:22:00,79.2,54.1,29.67,WSW,247,1.6,1.6,42,0.00,,,0.00,WUHU21623XXSP,2013-05-15 03:22:00,
2013-05-14 22:27:00,79.3,54.2,29.67,ESE,112,2.2,2.2,42,0.00,,,0.00,WUHU21623XXSP,2013-05-15 03:27:00,
2013-05-14 22:32:00,79.2,54.1,29.67,ENE,67,1.1,2.2,42,0.00,,,0.00,WUHU21623XXSP,2013-05-15 03:32:00,
2013-05-14 22:37:00,79.2,54.1,29.65,WSW,247,3.8,3.8,42,0.00,,,0.00,WUHU21623XXSP,2013-05-15 03:37:00,
2013-05-14 22:42:00,79.2,53.5,29.65,ESE,112,0.0,3.8,41,0.00,,,0.00,WUHU21623XXSP,2013-05-15 03:42:00,
2013-05-14 22:47:00,79.3,53.6,29.66,SSE,157,0.7,0.7,41,0.00,,,0.00,WUHU21623XXSP,2013-05-15 03:47:00,
2013-05-14 22:52:00,79.2,53.5,29.65,WSW,247,0.0,1.1,41,0.00,,,0.00,WUHU21623XXSP,2013-05-15 03:52:00,
2013-05-14 22:57:00,79.0,53.3,29.65,SW,225,2.0,2.0,41,0.00,,,0.00,WUHU21623XXSP,2013-05-15 03:57:00,
2013-05-14 23:01:00,78.6,53.6,29.65,SSE,157,1.1,2.0,42,0.00,,,0.00,WUHU21623XXSP,2013-05-15 04:01:00,
2013-05-14 23:06:00,78.4,53.4,29.65,SW,225,2.9,2.9,42,0.00,,,0.00,WUHU21623XXSP,2013-05-15 04:06:00,
2013-05-14 23:11:00,78.3,52.6,29.65,SSE,157,2.9,2.9,41,0.00,,,0.00,WUHU21623XXSP,2013-05-15 04:11:00,
2013-05-14 23:16:00,77.9,52.3,29.65,South,180,0.9,2.9,41,0.00,,,0.00,WUHU21623XXSP,2013-05-15 04:16:00,
2013-05-14 23:17:00,78.1,53.1,29.64,South,180,0.0,0.0,42,0.00,,,0.00,WUHU21623XXSP,2013-05-15 04:17:00,
2013-05-14 23:21:00,77.9,53.1,29.65,South,180,0.0,0.9,42,0.00,,,0.00,WUHU21623XXSP,2013-05-15 04:21:00,
2013-05-14 23:26:00,77.7,53.4,29.65,South,180,3.1,3.1,43,0.00,,,0.00,WUHU21623XXSP,2013-05-15 04:26:00,
2013-05-14 23:31:00,77.5,53.2,29.64,SE,135,0.0,3.1,43,0.00,,,0.00,WUHU21623XXSP,2013-05-15 04:31:00,
2013-05-14 23:36:00,77.2,52.9,29.65,SW,225,0.0,2.9,43,0.00,,,0.00,WUHU21623XXSP,2013-05-15 04:36:00,
2013-05-14 23:41:00,76.8,52.6,29.64,WSW,247,2.0,2.0,43,0.00,,,0.00,WUHU21623XXSP,2013-05-15 04:41:00,
2013-05-14 23:46:00,76.6,52.4,29.65,SW,225,0.0,2.0,43,0.00,,,0.00,WUHU21623XXSP,2013-05-15 04:46:00,
2013-05-14 23:51:00,76.6,52.4,29.64,SSE,157,0.0,0.9,43,0.00,,,0.00,WUHU21623XXSP,2013-05-15 04:51:00,
2013-05-14 23:56:00,76.5,51.6,29.64,South,180,4.5,4.5,42,0.00,,,0.00,WUHU21623XXSP,2013-05-15 04:56:00,